Year,Month,Day,Hour,Minute,Value (Times are PST for windspeed in km/hr)
2009,04,02,00,00,6.10
2009,04,02,00,01,1.90
2009,04,02,00,02,0.60
2009,04,02,00,03,0.90
2009,04,02,00,04,0.10
2009,04,02,00,05,3.90
2009,04,02,00,06,2.20
2009,04,02,00,07,0.00
2009,04,02,00,08,2.00
2009,04,02,00,09,4.10
2009,04,02,00,10,0.20
2009,04,02,00,11,3.20
2009,04,02,00,12,2.50
2009,04,02,00,13,2.50
2009,04,02,00,14,3.50
2009,04,02,00,15,3.60
2009,04,02,00,16,0.20
2009,04,02,00,17,0.10
2009,04,02,00,18,1.20
2009,04,02,00,19,0.10
2009,04,02,00,20,4.10
2009,04,02,00,21,5.50
2009,04,02,00,22,3.90
2009,04,02,00,23,4.00
2009,04,02,00,24,1.40
2009,04,02,00,25,3.20
2009,04,02,00,26,0.00
2009,04,02,00,27,0.80
2009,04,02,00,28,0.20
2009,04,02,00,29,0.00
2009,04,02,00,30,3.10
2009,04,02,00,31,2.50
2009,04,02,00,32,0.60
2009,04,02,00,33,0.40
2009,04,02,00,34,3.50
2009,04,02,00,35,1.90
2009,04,02,00,36,5.60
2009,04,02,00,37,1.60
2009,04,02,00,38,3.00
2009,04,02,00,39,3.90
2009,04,02,00,40,0.10
2009,04,02,00,41,1.50
2009,04,02,00,42,5.40
2009,04,02,00,43,2.70
2009,04,02,00,44,2.10
2009,04,02,00,45,3.10
2009,04,02,00,46,0.50
2009,04,02,00,47,1.50
2009,04,02,00,48,0.90
2009,04,02,00,49,1.20
2009,04,02,00,50,3.80
2009,04,02,00,51,0.90
2009,04,02,00,52,2.20
2009,04,02,00,53,0.60
2009,04,02,00,54,1.40
2009,04,02,00,55,5.20
2009,04,02,00,56,4.40
2009,04,02,00,57,2.70
2009,04,02,00,58,1.00
2009,04,02,00,59,0.90
2009,04,02,01,00,4.30
2009,04,02,01,01,0.20
2009,04,02,01,02,0.80
2009,04,02,01,03,0.60
2009,04,02,01,04,0.20
2009,04,02,01,05,0.90
2009,04,02,01,06,1.90
2009,04,02,01,07,0.10
2009,04,02,01,08,0.00
2009,04,02,01,09,1.30
2009,04,02,01,10,0.10
2009,04,02,01,11,1.40
2009,04,02,01,12,0.60
2009,04,02,01,13,0.50
2009,04,02,01,14,0.10
2009,04,02,01,15,0.10
2009,04,02,01,16,0.80
2009,04,02,01,17,2.50
2009,04,02,01,18,0.30
2009,04,02,01,19,1.40
2009,04,02,01,20,0.40
2009,04,02,01,21,0.00
2009,04,02,01,22,2.00
2009,04,02,01,23,0.60
2009,04,02,01,24,0.30
2009,04,02,01,25,0.90
2009,04,02,01,26,1.10
2009,04,02,01,27,1.10
2009,04,02,01,28,0.00
2009,04,02,01,29,0.00
2009,04,02,01,30,1.00
2009,04,02,01,31,0.00
2009,04,02,01,32,0.30
2009,04,02,01,33,0.40
2009,04,02,01,34,0.00
2009,04,02,01,35,2.10
2009,04,02,01,36,0.10
2009,04,02,01,37,0.20
2009,04,02,01,38,0.20
2009,04,02,01,39,0.20
2009,04,02,01,40,0.00
2009,04,02,01,41,0.00
2009,04,02,01,42,0.00
2009,04,02,01,43,0.00
2009,04,02,01,44,0.00
2009,04,02,01,45,0.00
2009,04,02,01,46,0.60
2009,04,02,01,47,0.70
2009,04,02,01,48,0.00
2009,04,02,01,49,0.00
2009,04,02,01,50,0.20
2009,04,02,01,51,0.00
2009,04,02,01,52,0.00
2009,04,02,01,53,0.50
2009,04,02,01,54,0.00
2009,04,02,01,55,0.00
2009,04,02,01,56,0.00
2009,04,02,01,57,0.00
2009,04,02,01,58,0.00
2009,04,02,01,59,1.90
2009,04,02,02,00,0.30
2009,04,02,02,01,0.80
2009,04,02,02,02,0.20
2009,04,02,02,03,0.50
2009,04,02,02,04,0.20
2009,04,02,02,05,0.00
2009,04,02,02,06,0.00
2009,04,02,02,07,0.00
2009,04,02,02,08,0.20
2009,04,02,02,09,0.40
2009,04,02,02,10,1.90
2009,04,02,02,11,0.20
2009,04,02,02,12,0.00
2009,04,02,02,13,0.00
2009,04,02,02,14,0.10
2009,04,02,02,15,0.00
2009,04,02,02,16,0.20
2009,04,02,02,17,0.20
2009,04,02,02,18,0.00
2009,04,02,02,19,0.00
2009,04,02,02,20,0.00
2009,04,02,02,21,0.00
2009,04,02,02,22,0.00
2009,04,02,02,23,0.00
2009,04,02,02,24,0.00
2009,04,02,02,25,0.00
2009,04,02,02,26,0.00
2009,04,02,02,27,0.10
2009,04,02,02,28,0.60
2009,04,02,02,29,0.90
2009,04,02,02,30,1.50
2009,04,02,02,31,1.40
2009,04,02,02,32,1.00
2009,04,02,02,33,0.50
2009,04,02,02,34,1.30
2009,04,02,02,35,0.50
2009,04,02,02,36,0.00
2009,04,02,02,37,0.00
2009,04,02,02,38,0.00
2009,04,02,02,39,0.00
2009,04,02,02,40,0.00
2009,04,02,02,41,0.20
2009,04,02,02,42,0.00
2009,04,02,02,43,0.00
2009,04,02,02,44,0.00
2009,04,02,02,45,0.00
2009,04,02,02,46,0.30
2009,04,02,02,47,1.00
2009,04,02,02,48,2.30
2009,04,02,02,49,3.20
2009,04,02,02,50,1.50
2009,04,02,02,51,1.90
2009,04,02,02,52,0.70
2009,04,02,02,53,0.00
2009,04,02,02,54,0.90
2009,04,02,02,55,0.60
2009,04,02,02,56,0.10
2009,04,02,02,57,0.20
2009,04,02,02,58,0.60
2009,04,02,02,59,0.20
2009,04,02,03,00,0.40
2009,04,02,03,01,0.00
2009,04,02,03,02,0.00
2009,04,02,03,03,0.00
2009,04,02,03,04,0.00
2009,04,02,03,05,0.10
2009,04,02,03,06,0.00
2009,04,02,03,07,0.00
2009,04,02,03,08,0.00
2009,04,02,03,09,0.00
2009,04,02,03,10,0.00
2009,04,02,03,11,0.00
2009,04,02,03,12,0.00
2009,04,02,03,13,0.00
2009,04,02,03,14,0.10
2009,04,02,03,15,0.00
2009,04,02,03,16,0.10
2009,04,02,03,17,0.50
2009,04,02,03,18,0.10
2009,04,02,03,19,0.00
2009,04,02,03,20,0.00
2009,04,02,03,21,0.00
2009,04,02,03,22,0.00
2009,04,02,03,23,0.00
2009,04,02,03,24,0.00
2009,04,02,03,25,0.00
2009,04,02,03,26,0.00
2009,04,02,03,27,0.00
2009,04,02,03,28,0.00
2009,04,02,03,29,0.00
2009,04,02,03,30,0.00
2009,04,02,03,31,0.00
2009,04,02,03,32,0.00
2009,04,02,03,33,0.10
2009,04,02,03,34,0.00
2009,04,02,03,35,0.00
2009,04,02,03,36,0.00
2009,04,02,03,37,0.00
2009,04,02,03,38,1.10
2009,04,02,03,39,0.00
2009,04,02,03,40,0.00
2009,04,02,03,41,0.10
2009,04,02,03,42,0.00
2009,04,02,03,43,0.70
2009,04,02,03,44,0.50
2009,04,02,03,45,0.00
2009,04,02,03,46,0.10
2009,04,02,03,47,0.10
2009,04,02,03,48,0.30
2009,04,02,03,49,2.90
2009,04,02,03,50,1.50
2009,04,02,03,51,0.80
2009,04,02,03,52,1.20
2009,04,02,03,53,0.50
2009,04,02,03,54,0.60
2009,04,02,03,55,2.10
2009,04,02,03,56,1.60
2009,04,02,03,57,1.60
2009,04,02,03,58,3.50
2009,04,02,03,59,0.10
2009,04,02,04,00,0.50
2009,04,02,04,01,1.10
2009,04,02,04,02,2.70
2009,04,02,04,03,0.90
2009,04,02,04,04,0.00
2009,04,02,04,05,0.50
2009,04,02,04,06,0.20
2009,04,02,04,07,0.90
2009,04,02,04,08,1.20
2009,04,02,04,09,0.20
2009,04,02,04,10,0.00
2009,04,02,04,11,0.80
2009,04,02,04,12,0.60
2009,04,02,04,13,0.40
2009,04,02,04,14,0.00
2009,04,02,04,15,1.80
2009,04,02,04,16,2.50
2009,04,02,04,17,0.20
2009,04,02,04,18,1.80
2009,04,02,04,19,4.70
2009,04,02,04,20,1.40
2009,04,02,04,21,2.50
2009,04,02,04,22,0.70
2009,04,02,04,23,1.00
2009,04,02,04,24,0.20
2009,04,02,04,25,1.20
2009,04,02,04,26,0.00
2009,04,02,04,27,1.80
2009,04,02,04,28,0.80
2009,04,02,04,29,2.70
2009,04,02,04,30,2.70
2009,04,02,04,31,0.10
2009,04,02,04,32,1.30
2009,04,02,04,33,1.40
2009,04,02,04,34,2.80
2009,04,02,04,35,1.40
2009,04,02,04,36,2.70
2009,04,02,04,37,1.40
2009,04,02,04,38,1.10
2009,04,02,04,39,4.10
2009,04,02,04,40,1.50
2009,04,02,04,41,1.60
2009,04,02,04,42,5.10
2009,04,02,04,43,3.30
2009,04,02,04,44,5.40
2009,04,02,04,45,1.90
2009,04,02,04,46,5.50
2009,04,02,04,47,2.00
2009,04,02,04,48,3.50
2009,04,02,04,49,3.50
2009,04,02,04,50,2.40
2009,04,02,04,51,3.90
2009,04,02,04,52,5.10
2009,04,02,04,53,0.60
2009,04,02,04,54,3.90
2009,04,02,04,55,3.20
2009,04,02,04,56,1.90
2009,04,02,04,57,5.10
2009,04,02,04,58,3.70
2009,04,02,04,59,3.30
2009,04,02,05,00,1.10
2009,04,02,05,01,2.50
2009,04,02,05,02,4.80
2009,04,02,05,03,2.60
2009,04,02,05,04,2.10
2009,04,02,05,05,4.30
2009,04,02,05,06,2.40
2009,04,02,05,07,0.60
2009,04,02,05,08,3.60
2009,04,02,05,09,0.30
2009,04,02,05,10,0.90
2009,04,02,05,11,4.20
2009,04,02,05,12,1.90
2009,04,02,05,13,0.50
2009,04,02,05,14,1.10
2009,04,02,05,15,2.80
2009,04,02,05,16,2.80
2009,04,02,05,17,2.30
2009,04,02,05,18,0.00
2009,04,02,05,19,2.80
2009,04,02,05,20,3.90
2009,04,02,05,21,2.30
2009,04,02,05,22,2.90
2009,04,02,05,23,2.90
2009,04,02,05,24,4.90
2009,04,02,05,25,4.50
2009,04,02,05,26,4.50
2009,04,02,05,27,1.30
2009,04,02,05,28,5.00
2009,04,02,05,29,5.20
2009,04,02,05,30,2.00
2009,04,02,05,31,3.70
2009,04,02,05,32,3.70
2009,04,02,05,33,5.80
2009,04,02,05,34,2.80
2009,04,02,05,35,1.60
2009,04,02,05,36,3.60
2009,04,02,05,37,6.80
2009,04,02,05,38,2.80
2009,04,02,05,39,1.10
2009,04,02,05,40,3.80
2009,04,02,05,41,3.30
2009,04,02,05,42,4.40
2009,04,02,05,43,2.40
2009,04,02,05,44,2.80
2009,04,02,05,45,6.90
2009,04,02,05,46,3.90
2009,04,02,05,47,4.80
2009,04,02,05,48,3.50
2009,04,02,05,49,6.50
2009,04,02,05,50,4.10
2009,04,02,05,51,5.60
2009,04,02,05,52,2.70
2009,04,02,05,53,6.60
2009,04,02,05,54,6.00
2009,04,02,05,55,5.10
2009,04,02,05,56,7.40
2009,04,02,05,57,3.80
2009,04,02,05,58,2.50
2009,04,02,05,59,2.50
2009,04,02,06,00,6.10
2009,04,02,06,01,5.10
2009,04,02,06,02,3.10
2009,04,02,06,03,3.00
2009,04,02,06,04,5.60
2009,04,02,06,05,4.90
2009,04,02,06,06,3.90
2009,04,02,06,07,5.50
2009,04,02,06,08,6.50
2009,04,02,06,09,5.80
2009,04,02,06,10,2.40
2009,04,02,06,11,4.20
2009,04,02,06,12,5.70
2009,04,02,06,13,4.70
2009,04,02,06,14,3.20
2009,04,02,06,15,5.40
2009,04,02,06,16,5.10
2009,04,02,06,17,4.90
2009,04,02,06,18,2.20
2009,04,02,06,19,3.60
2009,04,02,06,20,3.50
2009,04,02,06,21,3.10
2009,04,02,06,22,4.60
2009,04,02,06,23,4.40
2009,04,02,06,24,2.10
2009,04,02,06,25,3.40
2009,04,02,06,26,1.90
2009,04,02,06,27,4.80
2009,04,02,06,28,3.40
2009,04,02,06,29,4.30
2009,04,02,06,30,5.30
2009,04,02,06,31,1.30
2009,04,02,06,32,0.10
2009,04,02,06,33,4.00
2009,04,02,06,34,4.80
2009,04,02,06,35,1.40
2009,04,02,06,36,4.30
2009,04,02,06,37,4.60
2009,04,02,06,38,4.70
2009,04,02,06,39,1.90
2009,04,02,06,40,6.00
2009,04,02,06,41,9.00
2009,04,02,06,42,3.50
2009,04,02,06,43,4.80
2009,04,02,06,44,1.00
2009,04,02,06,45,7.60
2009,04,02,06,46,2.30
2009,04,02,06,47,3.50
2009,04,02,06,48,4.30
2009,04,02,06,49,6.30
2009,04,02,06,50,3.50
2009,04,02,06,51,0.90
2009,04,02,06,52,7.00
2009,04,02,06,53,3.30
2009,04,02,06,54,0.30
2009,04,02,06,55,2.10
2009,04,02,06,56,1.70
2009,04,02,06,57,2.90
2009,04,02,06,58,1.20
2009,04,02,06,59,4.30
2009,04,02,07,00,2.30
2009,04,02,07,01,3.30
2009,04,02,07,02,3.60
2009,04,02,07,03,2.00
2009,04,02,07,04,1.00
2009,04,02,07,05,4.50
2009,04,02,07,06,1.90
2009,04,02,07,07,1.10
2009,04,02,07,08,1.90
2009,04,02,07,09,2.40
2009,04,02,07,10,0.70
2009,04,02,07,11,0.60
2009,04,02,07,12,2.20
2009,04,02,07,13,2.30
2009,04,02,07,14,4.00
2009,04,02,07,15,4.30
2009,04,02,07,16,6.80
2009,04,02,07,17,6.90
2009,04,02,07,18,4.70
2009,04,02,07,19,3.50
2009,04,02,07,20,3.40
2009,04,02,07,21,4.30
2009,04,02,07,22,2.40
2009,04,02,07,23,6.00
2009,04,02,07,24,3.20
2009,04,02,07,25,1.70
2009,04,02,07,26,0.20
2009,04,02,07,27,0.80
2009,04,02,07,28,1.60
2009,04,02,07,29,1.00
2009,04,02,07,30,1.30
2009,04,02,07,31,3.30
2009,04,02,07,32,4.40
2009,04,02,07,33,3.00
2009,04,02,07,34,3.20
2009,04,02,07,35,2.00
2009,04,02,07,36,5.80
2009,04,02,07,37,6.20
2009,04,02,07,38,7.70
2009,04,02,07,39,3.90
2009,04,02,07,40,5.30
2009,04,02,07,41,5.60
2009,04,02,07,42,2.00
2009,04,02,07,43,1.80
2009,04,02,07,44,4.80
2009,04,02,07,45,5.80
2009,04,02,07,46,6.20
2009,04,02,07,47,9.30
2009,04,02,07,48,2.70
2009,04,02,07,49,6.50
2009,04,02,07,50,4.00
2009,04,02,07,51,3.10
2009,04,02,07,52,3.40
2009,04,02,07,53,2.50
2009,04,02,07,54,2.90
2009,04,02,07,55,1.90
2009,04,02,07,56,2.10
2009,04,02,07,57,6.20
2009,04,02,07,58,3.10
2009,04,02,07,59,1.20
2009,04,02,08,00,3.10
2009,04,02,08,01,8.50
2009,04,02,08,02,5.10
2009,04,02,08,03,3.20
2009,04,02,08,04,4.20
2009,04,02,08,05,2.00
2009,04,02,08,06,3.20
2009,04,02,08,07,3.70
2009,04,02,08,08,4.80
2009,04,02,08,09,5.40
2009,04,02,08,10,4.60
2009,04,02,08,11,3.30
2009,04,02,08,12,4.50
2009,04,02,08,13,6.00
2009,04,02,08,14,7.80
2009,04,02,08,15,4.20
2009,04,02,08,16,3.80
2009,04,02,08,17,3.20
2009,04,02,08,18,3.50
2009,04,02,08,19,5.20
2009,04,02,08,20,2.30
2009,04,02,08,21,2.70
2009,04,02,08,22,6.10
2009,04,02,08,23,3.00
2009,04,02,08,24,1.70
2009,04,02,08,25,3.50
2009,04,02,08,26,6.00
2009,04,02,08,27,6.50
2009,04,02,08,28,3.00
2009,04,02,08,29,1.60
2009,04,02,08,30,3.90
2009,04,02,08,31,3.90
2009,04,02,08,32,3.10
2009,04,02,08,33,3.00
2009,04,02,08,34,1.90
2009,04,02,08,35,2.60
2009,04,02,08,36,2.60
2009,04,02,08,37,6.00
2009,04,02,08,38,3.70
2009,04,02,08,39,5.20
2009,04,02,08,40,2.20
2009,04,02,08,41,3.20
2009,04,02,08,42,2.60
2009,04,02,08,43,3.10
2009,04,02,08,44,1.10
2009,04,02,08,45,5.10
2009,04,02,08,46,5.50
2009,04,02,08,47,1.90
2009,04,02,08,48,2.10
2009,04,02,08,49,5.30
2009,04,02,08,50,2.60
2009,04,02,08,51,4.80
2009,04,02,08,52,4.50
2009,04,02,08,53,3.50
2009,04,02,08,54,4.30
2009,04,02,08,55,3.10
2009,04,02,08,56,1.40
2009,04,02,08,57,0.20
2009,04,02,08,58,3.50
2009,04,02,08,59,4.70
2009,04,02,09,00,3.80
2009,04,02,09,01,8.30
2009,04,02,09,02,1.40
2009,04,02,09,03,5.70
2009,04,02,09,04,3.50
2009,04,02,09,05,3.50
2009,04,02,09,06,4.10
2009,04,02,09,07,3.50
2009,04,02,09,08,5.30
2009,04,02,09,09,2.20
2009,04,02,09,10,3.60
2009,04,02,09,11,4.30
2009,04,02,09,12,5.10
2009,04,02,09,13,2.60
2009,04,02,09,14,0.60
2009,04,02,09,15,0.90
2009,04,02,09,16,5.70
2009,04,02,09,17,5.50
2009,04,02,09,18,5.40
2009,04,02,09,19,6.20
2009,04,02,09,20,3.50
2009,04,02,09,21,4.10
2009,04,02,09,22,3.70
2009,04,02,09,23,3.50
2009,04,02,09,24,3.90
2009,04,02,09,25,3.30
2009,04,02,09,26,4.40
2009,04,02,09,27,3.90
2009,04,02,09,28,0.10
2009,04,02,09,29,0.60
2009,04,02,09,30,1.00
2009,04,02,09,31,3.30
2009,04,02,09,32,4.20
2009,04,02,09,33,1.90
2009,04,02,09,34,2.50
2009,04,02,09,35,1.30
2009,04,02,09,36,2.30
2009,04,02,09,37,7.40
2009,04,02,09,38,5.30
2009,04,02,09,39,4.70
2009,04,02,09,40,2.30
2009,04,02,09,41,6.00
2009,04,02,09,42,4.20
2009,04,02,09,43,1.70
2009,04,02,09,44,3.10
2009,04,02,09,45,4.40
2009,04,02,09,46,6.30
2009,04,02,09,47,7.00
2009,04,02,09,48,7.60
2009,04,02,09,49,4.30
2009,04,02,09,50,2.90
2009,04,02,09,51,1.70
2009,04,02,09,52,4.70
2009,04,02,09,53,6.60
2009,04,02,09,54,5.10
2009,04,02,09,55,5.10
2009,04,02,09,56,5.10
2009,04,02,09,57,5.10
2009,04,02,09,58,4.20
2009,04,02,09,59,3.90
2009,04,02,10,00,1.10
2009,04,02,10,01,5.60
2009,04,02,10,02,8.20
2009,04,02,10,03,6.80
2009,04,02,10,04,8.40
2009,04,02,10,05,9.40
2009,04,02,10,06,2.70
2009,04,02,10,07,6.10
2009,04,02,10,08,8.90
2009,04,02,10,09,3.90
2009,04,02,10,10,5.30
2009,04,02,10,11,3.10
2009,04,02,10,12,7.40
2009,04,02,10,13,5.10
2009,04,02,10,14,4.20
2009,04,02,10,15,6.30
2009,04,02,10,16,4.70
2009,04,02,10,17,7.90
2009,04,02,10,18,9.00
2009,04,02,10,19,8.30
2009,04,02,10,20,3.40
2009,04,02,10,21,2.70
2009,04,02,10,22,1.90
2009,04,02,10,23,6.00
2009,04,02,10,24,5.90
2009,04,02,10,25,6.90
2009,04,02,10,26,2.10
2009,04,02,10,27,3.90
2009,04,02,10,28,0.20
2009,04,02,10,29,3.70
2009,04,02,10,30,6.10
2009,04,02,10,31,5.70
2009,04,02,10,32,4.30
2009,04,02,10,33,1.60
2009,04,02,10,34,1.60
2009,04,02,10,35,0.00
2009,04,02,10,36,3.00
2009,04,02,10,37,1.40
2009,04,02,10,38,4.60
2009,04,02,10,39,2.70
2009,04,02,10,40,3.00
2009,04,02,10,41,3.70
2009,04,02,10,42,3.50
2009,04,02,10,43,0.20
2009,04,02,10,44,6.00
2009,04,02,10,45,7.20
2009,04,02,10,46,7.10
2009,04,02,10,47,5.50
2009,04,02,10,48,4.80
2009,04,02,10,49,5.80
2009,04,02,10,50,5.80
2009,04,02,10,51,3.50
2009,04,02,10,52,6.10
2009,04,02,10,53,5.50
2009,04,02,10,54,3.90
2009,04,02,10,55,2.20
2009,04,02,10,56,6.30
2009,04,02,10,57,6.40
2009,04,02,10,58,5.60
2009,04,02,10,59,6.90
2009,04,02,11,00,5.60
2009,04,02,11,01,4.00
2009,04,02,11,02,5.60
2009,04,02,11,03,1.80
2009,04,02,11,04,0.60
2009,04,02,11,05,3.50
2009,04,02,11,06,1.70
2009,04,02,11,07,2.10
2009,04,02,11,08,4.10
2009,04,02,11,09,4.20
2009,04,02,11,10,3.30
2009,04,02,11,11,2.90
2009,04,02,11,12,7.00
2009,04,02,11,13,5.10
2009,04,02,11,14,1.40
2009,04,02,11,15,2.20
2009,04,02,11,16,5.00
2009,04,02,11,17,4.00
2009,04,02,11,18,3.90
2009,04,02,11,19,5.30
2009,04,02,11,20,7.30
2009,04,02,11,21,4.70
2009,04,02,11,22,8.30
2009,04,02,11,23,9.90
2009,04,02,11,24,7.20
2009,04,02,11,25,8.60
2009,04,02,11,26,7.20
2009,04,02,11,27,6.30
2009,04,02,11,28,6.10
2009,04,02,11,29,11.30
2009,04,02,11,30,7.60
2009,04,02,11,31,6.80
2009,04,02,11,32,10.30
2009,04,02,11,33,7.50
2009,04,02,11,34,9.60
2009,04,02,11,35,7.10
2009,04,02,11,36,3.50
2009,04,02,11,37,3.20
2009,04,02,11,38,10.10
2009,04,02,11,39,10.50
2009,04,02,11,40,3.70
2009,04,02,11,41,5.90
2009,04,02,11,42,7.50
2009,04,02,11,43,7.30
2009,04,02,11,44,7.10
2009,04,02,11,45,10.80
2009,04,02,11,46,11.50
2009,04,02,11,47,14.30
2009,04,02,11,48,7.00
2009,04,02,11,49,3.50
2009,04,02,11,50,5.00
2009,04,02,11,51,8.70
2009,04,02,11,52,10.60
2009,04,02,11,53,5.60
2009,04,02,11,54,7.20
2009,04,02,11,55,9.30
2009,04,02,11,56,13.40
2009,04,02,11,57,11.90
2009,04,02,11,58,6.60
2009,04,02,11,59,7.30
2009,04,02,12,00,5.00
2009,04,02,12,01,7.40
2009,04,02,12,02,9.60
2009,04,02,12,03,9.80
2009,04,02,12,04,11.70
2009,04,02,12,05,11.10
2009,04,02,12,06,10.50
2009,04,02,12,07,12.60
2009,04,02,12,08,9.00
2009,04,02,12,09,14.60
2009,04,02,12,10,11.30
2009,04,02,12,11,10.40
2009,04,02,12,12,10.00
2009,04,02,12,13,5.90
2009,04,02,12,14,12.60
2009,04,02,12,15,12.60
2009,04,02,12,16,9.80
2009,04,02,12,17,7.40
2009,04,02,12,18,5.30
2009,04,02,12,19,6.00
2009,04,02,12,20,8.30
2009,04,02,12,21,10.40
2009,04,02,12,22,9.10
2009,04,02,12,23,9.20
2009,04,02,12,24,9.30
2009,04,02,12,25,4.60
2009,04,02,12,26,3.40
2009,04,02,12,27,8.20
2009,04,02,12,28,8.50
2009,04,02,12,29,8.50
2009,04,02,12,30,14.20
2009,04,02,12,31,8.00
2009,04,02,12,32,11.50
2009,04,02,12,33,9.50
2009,04,02,12,34,8.10
2009,04,02,12,35,7.60
2009,04,02,12,36,8.90
2009,04,02,12,37,12.60
2009,04,02,12,38,9.90
2009,04,02,12,39,10.50
2009,04,02,12,40,8.80
2009,04,02,12,41,11.90
2009,04,02,12,42,13.00
2009,04,02,12,43,14.20
2009,04,02,12,44,12.30
2009,04,02,12,45,15.00
2009,04,02,12,46,17.10
2009,04,02,12,47,7.70
2009,04,02,12,48,14.80
2009,04,02,12,49,10.90
2009,04,02,12,50,11.30
2009,04,02,12,51,11.40
2009,04,02,12,52,17.40
2009,04,02,12,53,19.80
2009,04,02,12,54,18.90
2009,04,02,12,55,14.70
2009,04,02,12,56,15.50
2009,04,02,12,57,15.50
2009,04,02,12,58,16.40
2009,04,02,12,59,13.00
2009,04,02,13,00,11.30
2009,04,02,13,01,9.90
2009,04,02,13,02,3.40
2009,04,02,13,03,9.70
2009,04,02,13,04,8.00
2009,04,02,13,05,8.80
2009,04,02,13,06,9.50
2009,04,02,13,07,9.10
2009,04,02,13,08,18.50
2009,04,02,13,09,13.40
2009,04,02,13,10,12.90
2009,04,02,13,11,16.40
2009,04,02,13,12,11.20
2009,04,02,13,13,14.10
2009,04,02,13,14,9.60
2009,04,02,13,15,19.20
2009,04,02,13,16,12.30
2009,04,02,13,17,12.20
2009,04,02,13,18,14.20
2009,04,02,13,19,20.80
2009,04,02,13,20,25.70
2009,04,02,13,21,14.30
2009,04,02,13,22,14.60
2009,04,02,13,23,16.80
2009,04,02,13,24,14.50
2009,04,02,13,25,13.40
2009,04,02,13,26,7.70
2009,04,02,13,27,5.80
2009,04,02,13,28,9.20
2009,04,02,13,29,12.30
2009,04,02,13,30,7.30
2009,04,02,13,31,11.20
2009,04,02,13,32,12.30
2009,04,02,13,33,11.50
2009,04,02,13,34,10.90
2009,04,02,13,35,11.40
2009,04,02,13,36,6.90
2009,04,02,13,37,12.80
2009,04,02,13,38,12.60
2009,04,02,13,39,10.30
2009,04,02,13,40,11.70
2009,04,02,13,41,11.80
2009,04,02,13,42,18.30
2009,04,02,13,43,18.20
2009,04,02,13,44,11.00
2009,04,02,13,45,18.30
2009,04,02,13,46,16.50
2009,04,02,13,47,10.50
2009,04,02,13,48,14.70
2009,04,02,13,49,14.60
2009,04,02,13,50,11.20
2009,04,02,13,51,5.70
2009,04,02,13,52,11.30
2009,04,02,13,53,15.50
2009,04,02,13,54,18.70
2009,04,02,13,55,11.70
2009,04,02,13,56,11.30
2009,04,02,13,57,7.20
2009,04,02,13,58,9.90
2009,04,02,13,59,10.10
2009,04,02,14,00,12.10
2009,04,02,14,01,14.70
2009,04,02,14,02,12.50
2009,04,02,14,03,13.40
2009,04,02,14,04,16.70
2009,04,02,14,05,10.40
2009,04,02,14,06,10.20
2009,04,02,14,07,8.40
2009,04,02,14,08,13.90
2009,04,02,14,09,14.40
2009,04,02,14,10,11.60
2009,04,02,14,11,14.50
2009,04,02,14,12,10.90
2009,04,02,14,13,10.10
2009,04,02,14,14,13.00
2009,04,02,14,15,14.40
2009,04,02,14,16,11.60
2009,04,02,14,17,10.60
2009,04,02,14,18,9.00
2009,04,02,14,19,10.90
2009,04,02,14,20,10.70
2009,04,02,14,21,8.10
2009,04,02,14,22,10.70
2009,04,02,14,23,11.00
2009,04,02,14,24,14.40
2009,04,02,14,25,15.00
2009,04,02,14,26,11.40
2009,04,02,14,27,7.70
2009,04,02,14,28,11.50
2009,04,02,14,29,14.90
2009,04,02,14,30,19.30
2009,04,02,14,31,8.60
2009,04,02,14,32,6.60
2009,04,02,14,33,13.00
2009,04,02,14,34,8.40
2009,04,02,14,35,14.10
2009,04,02,14,36,16.90
2009,04,02,14,37,16.00
2009,04,02,14,38,7.70
2009,04,02,14,39,15.60
2009,04,02,14,40,17.70
2009,04,02,14,41,17.40
2009,04,02,14,42,14.20
2009,04,02,14,43,6.50
2009,04,02,14,44,9.40
2009,04,02,14,45,11.30
2009,04,02,14,46,11.50
2009,04,02,14,47,13.40
2009,04,02,14,48,15.90
2009,04,02,14,49,6.40
2009,04,02,14,50,9.30
2009,04,02,14,51,14.90
2009,04,02,14,52,18.50
2009,04,02,14,53,14.10
2009,04,02,14,54,10.50
2009,04,02,14,55,8.80
2009,04,02,14,56,10.40
2009,04,02,14,57,13.20
2009,04,02,14,58,9.00
2009,04,02,14,59,8.40
2009,04,02,15,00,12.80
2009,04,02,15,01,14.00
2009,04,02,15,02,13.80
2009,04,02,15,03,9.90
2009,04,02,15,04,14.40
2009,04,02,15,05,16.50
2009,04,02,15,06,9.40
2009,04,02,15,07,14.70
2009,04,02,15,08,14.70
2009,04,02,15,09,13.00
2009,04,02,15,10,15.70
2009,04,02,15,11,12.60
2009,04,02,15,12,21.60
2009,04,02,15,13,7.80
2009,04,02,15,14,13.10
2009,04,02,15,15,16.60
2009,04,02,15,16,9.40
2009,04,02,15,17,18.00
2009,04,02,15,18,25.80
2009,04,02,15,19,17.90
2009,04,02,15,20,13.30
2009,04,02,15,21,19.70
2009,04,02,15,22,18.00
2009,04,02,15,23,9.70
2009,04,02,15,24,8.40
2009,04,02,15,25,15.80
2009,04,02,15,26,19.10
2009,04,02,15,27,24.20
2009,04,02,15,28,13.40
2009,04,02,15,29,12.70
2009,04,02,15,30,8.50
2009,04,02,15,31,6.50
2009,04,02,15,32,9.00
2009,04,02,15,33,9.50
2009,04,02,15,34,8.80
2009,04,02,15,35,15.30
2009,04,02,15,36,15.90
2009,04,02,15,37,13.50
2009,04,02,15,38,14.30
2009,04,02,15,39,9.40
2009,04,02,15,40,16.20
2009,04,02,15,41,20.30
2009,04,02,15,42,15.50
2009,04,02,15,43,16.70
2009,04,02,15,44,14.90
2009,04,02,15,45,6.00
2009,04,02,15,46,11.20
2009,04,02,15,47,16.30
2009,04,02,15,48,17.10
2009,04,02,15,49,9.20
2009,04,02,15,50,13.80
2009,04,02,15,51,12.50
2009,04,02,15,52,8.80
2009,04,02,15,53,10.30
2009,04,02,15,54,13.00
2009,04,02,15,55,17.80
2009,04,02,15,56,16.30
2009,04,02,15,57,6.50
2009,04,02,15,58,10.30
2009,04,02,15,59,11.60
2009,04,02,16,00,13.10
2009,04,02,16,01,13.10
2009,04,02,16,02,11.10
2009,04,02,16,03,10.50
2009,04,02,16,04,8.30
2009,04,02,16,05,12.20
2009,04,02,16,06,9.40
2009,04,02,16,07,20.00
2009,04,02,16,08,14.70
2009,04,02,16,09,10.70
2009,04,02,16,10,16.70
2009,04,02,16,11,11.90
2009,04,02,16,12,10.60
2009,04,02,16,13,13.80
2009,04,02,16,14,13.30
2009,04,02,16,15,20.00
2009,04,02,16,16,17.90
2009,04,02,16,17,16.10
2009,04,02,16,18,13.00
2009,04,02,16,19,14.80
2009,04,02,16,20,18.10
2009,04,02,16,21,14.10
2009,04,02,16,22,18.50
2009,04,02,16,23,10.00
2009,04,02,16,24,7.00
2009,04,02,16,25,13.10
2009,04,02,16,26,10.70
2009,04,02,16,27,16.50
2009,04,02,16,28,17.10
2009,04,02,16,29,13.50
2009,04,02,16,30,10.50
2009,04,02,16,31,16.80
2009,04,02,16,32,12.60
2009,04,02,16,33,9.60
2009,04,02,16,34,17.90
2009,04,02,16,35,12.20
2009,04,02,16,36,17.70
2009,04,02,16,37,20.80
2009,04,02,16,38,10.90
2009,04,02,16,39,15.70
2009,04,02,16,40,13.70
2009,04,02,16,41,17.60
2009,04,02,16,42,7.00
2009,04,02,16,43,8.10
2009,04,02,16,44,15.90
2009,04,02,16,45,7.00
2009,04,02,16,46,17.00
2009,04,02,16,47,20.20
2009,04,02,16,48,18.20
2009,04,02,16,49,17.90
2009,04,02,16,50,14.90
2009,04,02,16,51,9.40
2009,04,02,16,52,8.40
2009,04,02,16,53,18.40
2009,04,02,16,54,9.90
2009,04,02,16,55,13.00
2009,04,02,16,56,13.30
2009,04,02,16,57,10.10
2009,04,02,16,58,15.60
2009,04,02,16,59,9.40
2009,04,02,17,00,13.20
2009,04,02,17,01,10.60
2009,04,02,17,02,16.00
2009,04,02,17,03,8.00
2009,04,02,17,04,8.30
2009,04,02,17,05,6.50
2009,04,02,17,06,9.90
2009,04,02,17,07,12.60
2009,04,02,17,08,19.10
2009,04,02,17,09,14.50
2009,04,02,17,10,13.80
2009,04,02,17,11,13.80
2009,04,02,17,12,17.90
2009,04,02,17,13,15.10
2009,04,02,17,14,10.30
2009,04,02,17,15,13.00
2009,04,02,17,16,13.70
2009,04,02,17,17,16.70
2009,04,02,17,18,15.70
2009,04,02,17,19,18.20
2009,04,02,17,20,15.40
2009,04,02,17,21,10.00
2009,04,02,17,22,13.00
2009,04,02,17,23,11.90
2009,04,02,17,24,9.10
2009,04,02,17,25,19.10
2009,04,02,17,26,6.10
2009,04,02,17,27,12.60
2009,04,02,17,28,14.20
2009,04,02,17,29,18.20
2009,04,02,17,30,13.70
2009,04,02,17,31,11.00
2009,04,02,17,32,10.00
2009,04,02,17,33,8.50
2009,04,02,17,34,10.10
2009,04,02,17,35,14.20
2009,04,02,17,36,10.50
2009,04,02,17,37,16.10
2009,04,02,17,38,16.30
2009,04,02,17,39,11.20
2009,04,02,17,40,12.20
2009,04,02,17,41,7.80
2009,04,02,17,42,13.90
2009,04,02,17,43,13.40
2009,04,02,17,44,12.80
2009,04,02,17,45,10.00
2009,04,02,17,46,9.70
2009,04,02,17,47,14.50
2009,04,02,17,48,16.20
2009,04,02,17,49,11.00
2009,04,02,17,50,9.40
2009,04,02,17,51,11.60
2009,04,02,17,52,12.10
2009,04,02,17,53,18.10
2009,04,02,17,54,15.40